Find Starlink 32278

NORAD ID: 60356 Int'l Des: 2024-138 Owner: SPXS Country: US Constellation: starlink operational
LEOCIRCULAR

リアルタイム位置

3D地球を読み込み中...

Starlink 32278について

説明を読み込み中...

次回通過

Passes for default location (London). Set your location on the main map for personalized predictions.

高度履歴

Loading altitude history...

軌道要素

1 60356U 24138B 26130.41766418 -.00000822 00000-0 -15631-4 0 9991
2 60356 53.1623 23.2142 0000963 101.5202 258.5907 15.30193312100077
Epoch: May 10, 2026 • Age: 11 hours

現在のステータス

高度 477.6 km
速度 7.63 km/s
衛星直下点 35.52°N, 133.48°W
打ち上げ日 Aug 4, 2024
運用期間 1.7 years
タイプ internet

技術仕様

分類 Payload
質量 730.00 kg
乾燥質量 700.00 kg
総質量 730.00 kg
長さ 0.30 m
直径 4.10 m
スパン 29.00 m
形状 Box + pan
製造者 SPXS
バスタイプ Starlink V2M
フェーズステータス In Orbit
所有者/国 SPXS/US

Most Searched